Change the Weather History Date:

Tuesday, January 8, 2013

  Actual Average (KHSV) Record (KHSV)
Temperature  
Mean Temperature 48 °F 41 °F  
Max Temperature 58 °F 51 °F 71 °F (1946)
Min Temperature 38 °F 32 °F 2 °F (1942)
Degree Days  
Heating Degree Days 17 24  
Month to date heating degree days 192  
Since 1 July heating degree days 1373  
Cooling Degree Days 0 0  
Month to date cooling degree days 0  
Year to date cooling degree days 0  
Moisture  
Dew Point 37 °F    
Average Humidity 68    
Maximum Humidity 79    
Minimum Humidity 52    
Precipitation  
Precipitation 0.00 in 0.15 in 1.06 in (1997)
Month to date precipitation 1.27  
Year to date precipitation 1.27  
Snow  
Snow 0.00 in - - ()
Month to date snowfall  
Since 1 July snowfall  
Snow Depth -    
Sea Level Pressure  
Sea Level Pressure 30.28 in    
Wind  
Wind Speed 5 mph (ESE)    
Max Wind Speed 12 mph    
Max Gust Speed 16 mph    
Visibility 10 miles    
Events      
T = Trace of Precipitation, MM = Missing Value Source: NWS Daily Summary

Daily Weather History Graph

Daily Weather History Graph

Search for Another Location

Airport or City:

Trip Planner

Search our weather history database for the weather conditions in past years. The results will help you decide how hot, cold, wet, or windy it might be!

Date:

Astronomy

Jan. 08, 2013 Rise Set
Actual Time 6:54 AM CST 4:54 PM CST
Civil Twilight 6:26 AM CST 5:22 PM CST
Nautical Twilight 5:55 AM CST 5:53 PM CST
Astronomical Twilight 5:25 AM CST 6:23 PM CST
Moon 3:27 AM CST (1/8) 1:56 PM CST (1/8)
Length of Visible Light 10h 55m
Length of Day
10h 00m
Waning Crescent, 13% of the Moon is Illuminated
Jan 8
Waning Crescent
Jan 11
New
Jan 18
First Quarter
Jan 26
Full
Feb 3
Last Quarter

Hourly Weather History & Observations

Time (CST) Temp. Windchill Dew Point Humidity Pressure Visibility Wind Dir Wind Speed Gust Speed Precip Events Conditions
12:15 AM 40.3 °F 38.2 °F 29.7 °F 66% 30.28 in 10.0 mi SE 3.5 mph - N/A   Clear
12:35 AM 40.1 °F 36.1 °F 29.8 °F 67% 30.28 in 10.0 mi SE 5.8 mph - N/A   Clear
12:55 AM 40.1 °F 36.1 °F 29.8 °F 67% 30.26 in 10.0 mi SE 5.8 mph - N/A   Clear
1:15 AM 40.1 °F 36.1 °F 29.8 °F 67% 30.26 in 10.0 mi ESE 5.8 mph - N/A   Clear
1:35 AM 40.1 °F 36.1 °F 29.7 °F 66% 30.26 in 10.0 mi SE 5.8 mph - N/A   Clear
1:55 AM 40.1 °F 36.1 °F 29.8 °F 67% 30.26 in 10.0 mi SE 5.8 mph - N/A   Clear
2:15 AM 40.5 °F 37.3 °F 30.0 °F 66% 30.26 in 10.0 mi SE 4.6 mph - N/A   Clear
2:35 AM 40.3 °F 36.3 °F 29.8 °F 66% 30.26 in 10.0 mi ESE 5.8 mph - N/A   Clear
2:55 AM 39.9 °F 36.7 °F 30.0 °F 68% 30.26 in 10.0 mi ESE 4.6 mph - N/A   Clear
3:15 AM 39.0 °F 35.7 °F 30.0 °F 70% 30.26 in 10.0 mi ESE 4.6 mph - N/A   Clear
3:35 AM 38.5 °F 34.1 °F 30.2 °F 72% 30.26 in 10.0 mi ESE 5.8 mph - N/A   Clear
3:55 AM 38.7 °F 36.3 °F 30.2 °F 72% 30.26 in 10.0 mi ESE 3.5 mph - N/A   Clear
4:15 AM 38.7 °F 35.2 °F 30.4 °F 72% 30.26 in 10.0 mi ESE 4.6 mph - N/A   Clear
4:35 AM 38.7 °F 36.3 °F 30.6 °F 73% 30.26 in 10.0 mi East 3.5 mph - N/A   Clear
4:55 AM 38.5 °F 35.0 °F 30.7 °F 74% 30.27 in 10.0 mi ESE 4.6 mph - N/A   Clear
5:15 AM 38.3 °F 35.9 °F 30.7 °F 74% 30.28 in 10.0 mi ESE 3.5 mph - N/A   Clear
5:35 AM 38.3 °F - 30.9 °F 75% 30.29 in 10.0 mi Calm Calm - N/A   Clear
5:55 AM 38.3 °F 33.9 °F 31.1 °F 75% 30.28 in 10.0 mi ESE 5.8 mph - N/A   Clear
6:15 AM 38.5 °F 35.0 °F 31.1 °F 75% 30.28 in 10.0 mi East 4.6 mph - N/A   Clear
6:35 AM 38.3 °F 33.9 °F 31.1 °F 75% 30.29 in 10.0 mi ESE 5.8 mph - N/A   Clear
6:55 AM 38.3 °F 34.8 °F 31.1 °F 75% 30.30 in 10.0 mi ESE 4.6 mph - N/A   Clear
7:15 AM 38.5 °F 34.1 °F 31.5 °F 76% 30.31 in 10.0 mi ESE 5.8 mph - N/A   Clear
7:35 AM 38.7 °F 36.3 °F 31.6 °F 76% 30.31 in 10.0 mi East 3.5 mph - N/A   Clear
7:55 AM 39.4 °F 36.1 °F 31.8 °F 74% 30.32 in 10.0 mi East 4.6 mph - N/A   Clear
8:15 AM 39.7 °F 35.6 °F 32.0 °F 74% 30.32 in 10.0 mi East 5.8 mph - N/A   Clear
8:35 AM 40.1 °F 36.1 °F 32.0 °F 73% 30.33 in 10.0 mi East 5.8 mph - N/A   Clear
9:15 AM 42.6 °F 37.2 °F 32.7 °F 68% 30.34 in 10.0 mi ESE 9.2 mph - N/A   Clear
9:35 AM 43.7 °F 39.1 °F 33.6 °F 68% 30.36 in 10.0 mi ESE 8.1 mph - N/A   Mostly Cloudy
9:55 AM 45.0 °F 39.3 °F 34.3 °F 66% 30.35 in 10.0 mi ESE 11.5 mph 16.1 mph N/A   Scattered Clouds
10:15 AM 47.1 °F - 35.2 °F 63% 30.34 in 10.0 mi ESE 9.2 mph - N/A   Clear
10:35 AM 47.7 °F - 36.0 °F 64% 30.33 in 10.0 mi ESE 6.9 mph - N/A   Scattered Clouds
10:55 AM 49.1 °F - 36.5 °F 62% 30.33 in 10.0 mi SE 6.9 mph - N/A   Scattered Clouds
11:15 AM 50.9 °F - 37.8 °F 61% 30.31 in 10.0 mi ESE 5.8 mph - N/A   Clear
11:55 AM 53.4 °F - 39.4 °F 59% 30.31 in 10.0 mi SSE 9.2 mph - N/A   Clear
12:15 PM 54.7 °F - 40.3 °F 58% 30.29 in 10.0 mi South 8.1 mph - N/A   Clear
12:35 PM 55.4 °F - 40.6 °F 58% 30.28 in 10.0 mi SSE 6.9 mph - N/A   Clear
12:55 PM 55.2 °F - 40.6 °F 58% 30.27 in 10.0 mi SE 5.8 mph - N/A   Clear
1:15 PM 56.5 °F - 41.2 °F 57% 30.27 in 7.0 mi South 6.9 mph - N/A   Clear
1:55 PM 58.5 °F - 41.0 °F 52% 30.26 in 10.0 mi SSE 4.6 mph - N/A   Mostly Cloudy
2:15 PM 57.4 °F - 40.8 °F 54% 30.26 in 10.0 mi ESE 3.5 mph - N/A   Mostly Cloudy
2:35 PM 57.4 °F - 41.4 °F 55% 30.27 in 10.0 mi SE 4.6 mph - N/A   Overcast
2:55 PM 57.6 °F - 41.4 °F 55% 30.26 in 10.0 mi SE 4.6 mph - N/A   Mostly Cloudy
3:15 PM 57.2 °F - 41.9 °F 57% 30.26 in 10.0 mi Calm Calm - N/A   Mostly Cloudy
3:35 PM 57.4 °F - 42.3 °F 57% 30.26 in 10.0 mi ESE 4.6 mph - N/A   Mostly Cloudy
3:55 PM 57.0 °F - 42.6 °F 59% 30.26 in 10.0 mi ESE 4.6 mph - N/A   Scattered Clouds
4:15 PM 56.7 °F - 42.8 °F 60% 30.26 in 10.0 mi ESE 3.5 mph - N/A   Clear
4:35 PM 55.0 °F - 43.2 °F 64% 30.27 in 10.0 mi ESE 4.6 mph - N/A   Clear
4:55 PM 54.0 °F - 43.5 °F 68% 30.28 in 10.0 mi ESE 3.5 mph - N/A   Clear
5:15 PM 53.4 °F - 43.9 °F 70% 30.28 in 10.0 mi ESE 3.5 mph - N/A   Clear
5:35 PM 52.9 °F - 43.7 °F 71% 30.26 in 10.0 mi Calm Calm - N/A   Clear
5:55 PM 52.3 °F - 43.2 °F 71% 30.27 in 10.0 mi ESE 4.6 mph - N/A   Clear
6:35 PM 52.0 °F - 42.8 °F 71% 30.27 in 10.0 mi ESE 5.8 mph - N/A   Scattered Clouds
6:55 PM 52.2 °F - 42.4 °F 69% 30.27 in 10.0 mi East 4.6 mph - N/A   Mostly Cloudy
7:15 PM 52.2 °F - 42.3 °F 69% 30.27 in 10.0 mi East 5.8 mph - N/A   Mostly Cloudy
7:55 PM 51.1 °F - 41.9 °F 71% 30.27 in 10.0 mi ESE 8.1 mph - N/A   Mostly Cloudy
8:15 PM 50.9 °F - 41.9 °F 71% 30.26 in 10.0 mi ESE 8.1 mph - N/A   Mostly Cloudy
8:35 PM 50.7 °F - 42.1 °F 72% 30.26 in 10.0 mi ESE 6.9 mph - N/A   Scattered Clouds
8:55 PM 50.2 °F - 42.1 °F 74% 30.27 in 10.0 mi ESE 6.9 mph - N/A   Clear
9:15 PM 50.0 °F - 42.3 °F 75% 30.26 in 10.0 mi ESE 8.1 mph - N/A   Clear
9:35 PM 49.6 °F - 42.3 °F 76% 30.26 in 10.0 mi ESE 6.9 mph - N/A   Clear
9:55 PM 49.5 °F - 42.3 °F 76% 30.26 in 10.0 mi ESE 8.1 mph - N/A   Mostly Cloudy
10:15 PM 49.5 °F - 42.3 °F 76% 30.27 in 10.0 mi ESE 5.8 mph - N/A   Mostly Cloudy
10:35 PM 49.1 °F - 42.4 °F 78% 30.28 in 10.0 mi ESE 3.5 mph - N/A   Mostly Cloudy
11:55 PM 49.1 °F - 43.0 °F 79% 30.29 in 10.0 mi ENE 3.5 mph - N/A   Mostly Cloudy